Dewpoint
53 53 53 53 53 53 52 53 53 54 54 54 54 55 55 55 56 56 56 57 57 57 58 58 59 59 60 60 60 60 59 44 40 41 34 36 54 63 66 66 65 65 58 31 25 22 20 24 25 25 29 28 30 31 32 33 35 31 25 23 22 24 21 24 19 19 22 19 18 20 21 18 20 23 28 26 24 29 29 31 32 35 39 35 36 43 44 44
53 53 53 52 52 52 52 52 52 53 54 54 54 55 55 55 56 56 56 57 57 57 58 58 59 60 60 60 60 60 53 43 35 34 35 51 65 65 65 66 65 60 53 32 25 22 21 22 27 24 25 23 34 29 32 30 33 26 24 24 20 22 22 24 20 18 18 22 19 21 22 20 19 23 24 21 21 24 25 25 31 30 31 41 43 45 49 54
53 53 52 52 52 52 52 52 52 53 53 53 53 54 55 55 55 56 56 56 57 57 58 58 59 59 60 60 60 59 47 36 37 33 31 59 64 66 66 65 61 56 36 32 32 25 25 25 26 22 25 20 24 25 28 27 31 29 20 13 20 23 20 23 21 20 21 21 20 21 23 21 21 22 24 23 22 25 23 21 24 26 28 35 43 47 53 55
53 53 52 52 51 52 52 52 53 53 53 53 53 54 54 54 55 55 56 56 57 57 58 58 59 60 59 60 60 56 36 31 28 31 32 57 65 65 65 61 55 48 36 34 29 27 27 27 26 24 27 22 25 28 22 24 23 26 20 16 19 21 22 22 20 21 21 23 21 20 22 21 22 22 23 20 20 20 23 24 20 20 24 30 42 46 52 54
53 53 52 51 51 51 52 52 52 53 53 53 53 54 54 54 55 55 56 56 57 57 58 58 59 60 59 60 58 51 32 17 25 32 36 62 63 65 64 60 54 38 35 31 30 29 26 26 26 27 25 23 25 22 20 23 26 24 18 20 20 23 22 23 20 24 23 24 21 21 19 20 23 23 21 20 18 17 19 21 24 22 23 32 41 44 51 53
53 54 53 51 51 52 51 52 52 52 52 52 53 53 54 54 54 55 55 56 57 57 57 58 59 59 60 59 52 37 26 14 25 36 58 60 61 63 63 62 54 33 32 32 29 29 28 24 23 25 22 20 20 18 19 22 26 18 21 22 22 22 20 22 24 25 21 21 20 20 21 22 22 22 22 21 19 19 22 24 25 25 27 34 43 45 49 51
54 54 52 52 52 51 52 52 52 52 53 52 52 52 53 54 54 54 55 56 56 57 57 58 59 59 59 58 47 33 26 27 34 38 60 61 59 60 57 57 50 34 32 31 30 28 29 24 23 26 21 21 19 20 24 23 23 21 17 21 21 23 21 25 26 25 22 20 20 20 22 22 21 20 23 21 21 21 23 30 34 34 29 42 43 45 48 51
55 52 53 52 53 52 52 52 51 51 52 53 52 52 53 54 54 54 54 56 56 57 58 58 59 59 59 40 35 27 30 30 32 44 57 57 48 45 54 40 37 38 32 31 31 29 27 24 21 24 20 18 19 20 22 24 21 22 20 25 24 24 24 24 24 22 22 22 24 25 22 22 21 21 23 21 21 21 34 39 41 39 41 43 42 44 46 48
53 52 52 51 53 52 51 51 51 51 52 53 53 53 53 53 54 54 54 55 56 57 57 58 58 58 57 36 25 15 14 32 41 48 49 42 39 40 40 36 35 33 34 36 33 31 29 27 27 23 18 21 22 21 22 20 19 26 24 25 24 23 24 25 25 25 25 28 24 22 21 22 23 25 22 21 22 23 38 40 41 41 41 42 42 43 44 46
54 52 52 51 52 51 50 49 51 52 52 52 52 53 53 53 53 53 54 55 56 57 57 58 58 58 40 34 20 9 19 46 49 50 45 41 38 39 40 42 34 33 33 34 32 29 29 26 27 26 23 23 23 22 24 23 21 25 24 24 22 23 25 26 25 26 27 26 24 21 22 23 24 23 19 25 31 37 38 39 40 40 40 41 41 43 44 44
54 54 52 51 52 51 50 51 52 52 52 52 53 53 53 54 54 54 54 55 56 57 57 58 58 51 39 27 12 7 38 48 49 47 46 41 40 38 39 41 41 35 33 34 35 34 30 29 32 28 29 22 23 22 22 23 23 24 23 23 22 23 25 25 24 24 25 24 24 22 22 25 23 25 21 22 33 36 34 37 39 40 40 41 41 42 43 43
52 54 54 52 51 51 51 52 51 51 53 53 53 54 54 54 54 54 54 55 56 57 58 58 57 50 36 31 19 20 36 47 48 45 45 43 42 42 41 43 38 38 34 31 35 39 36 31 33 27 23 26 21 23 22 26 24 24 24 21 21 23 22 23 23 24 26 23 24 23 22 21 24 21 23 25 34 35 34 35 37 39 39 39 40 41 42 43
52 53 54 53 52 52 52 53 53 51 53 53 53 54 54 55 54 55 54 55 56 57 58 58 56 50 32 18 25 36 40 43 47 44 42 44 43 43 43 43 41 38 35 32 34 39 38 34 29 25 30 22 23 21 25 27 26 25 23 22 21 23 21 23 26 24 24 23 25 23 20 21 21 22 24 30 33 33 33 33 35 37 37 38 39 40 42 42
54 53 53 54 53 53 53 53 53 54 52 53 54 55 55 55 55 54 54 54 57 57 58 57 51 39 28 21 32 42 44 48 44 41 43 44 36 39 40 38 39 38 42 37 40 41 39 36 30 27 33 24 23 32 25 26 26 23 23 25 24 20 21 22 24 24 23 25 25 22 22 19 21 21 22 25 32 31 30 30 32 34 36 36 37 38 39 41
55 54 54 53 53 54 54 53 54 54 54 54 55 56 56 55 55 54 55 56 57 58 58 56 46 34 29 26 37 43 54 46 44 44 45 37 36 37 37 35 35 37 37 39 39 41 36 35 31 26 25 28 29 25 23 25 25 26 20 21 24 20 23 24 29 23 22 22 24 22 22 20 20 21 23 26 32 31 28 28 29 32 34 35 36 37 38 39
55 55 54 53 53 54 55 54 54 55 54 54 55 56 56 56 56 56 56 57 58 58 52 46 41 38 28 22 37 52 44 41 44 45 45 41 39 36 38 36 39 34 33 32 37 35 33 32 28 26 26 25 24 24 23 24 24 24 20 23 21 22 22 20 24 26 25 23 25 21 20 20 20 22 26 31 32 31 30 29 29 29 31 33 34 35 37 38
56 55 55 55 53 53 54 53 54 53 53 54 55 56 57 56 57 58 57 57 53 52 49 39 40 37 14 24 36 32 34 43 44 43 43 43 41 38 37 36 33 32 34 34 36 35 32 30 31 29 28 25 26 26 22 23 21 23 24 21 25 21 21 20 22 25 27 23 21 23 21 20 20 22 24 30 32 31 30 29 29 29 29 31 33 34 35 36
57 56 55 55 54 54 54 54 54 53 53 54 56 56 54 57 57 56 54 52 52 50 48 44 36 17 14 28 23 28 42 43 42 42 41 40 38 37 35 32 34 33 33 31 31 29 32 29 30 27 27 26 24 24 22 18 20 21 23 23 22 23 22 20 22 22 22 21 21 21 21 21 21 22 22 26 31 31 30 29 28 28 29 30 31 32 33 35
57 56 56 55 54 55 55 55 55 54 54 55 57 56 56 55 48 48 47 42 30 24 21 27 14 13 15 16 34 43 43 43 43 41 38 38 38 37 36 35 35 31 30 30 28 29 31 30 32 28 24 24 23 22 19 20 22 22 24 23 24 20 21 21 23 24 22 21 20 20 21 21 21 22 22 22 31 30 28 29 29 29 29 29 30 31 32 33
57 57 56 56 55 55 55 56 55 55 55 54 50 44 40 38 32 38 38 42 35 21 24 25 30 28 35 35 40 43 44 41 40 40 42 42 36 35 33 32 34 32 29 30 30 29 31 28 25 24 24 24 24 24 22 22 21 24 25 25 23 22 22 23 24 25 27 22 21 21 21 21 21 22 22 22 28 30 29 28 27 28 29 29 29 29 31 32
57 57 57 56 56 56 56 56 55 55 56 51 49 34 24 32 16 13 29 41 41 39 36 38 31 27 31 38 40 41 38 38 41 40 41 42 37 34 33 31 30 29 30 31 31 29 31 26 27 27 25 25 25 25 25 25 24 23 24 24 23 24 21 23 24 27 28 24 24 24 23 23 22 22 22 23 25 23 24 25 26 26 26 28 29 29 30 31
57 57 57 57 56 56 56 56 55 57 55 50 48 41 44 34 30 36 37 29 33 41 42 39 40 38 41 41 42 41 39 36 39 40 42 38 35 33 33 30 29 29 30 30 29 28 26 26 25 26 27 26 25 25 25 24 25 25 24 24 24 24 26 25 26 28 28 25 23 24 23 24 25 25 25 25 24 24 24 25 25 25 26 27 28 29 30 32
57 57 57 57 57 57 56 56 55 56 51 49 47 45 46 49 49 48 38 34 33 38 39 39 36 38 39 39 39 39 36 33 33 38 40 38 35 33 31 29 29 30 30 28 27 27 25 27 27 27 27 26 26 25 25 25 26 25 25 23 22 26 23 21 24 28 25 24 25 25 26 26 27 27 26 27 26 26 27 26 26 27 26 26 26 28 30 30
56 56 57 57 57 57 56 56 56 55 53 50 47 45 47 49 48 45 34 26 23 32 39 39 35 36 37 32 37 38 35 34 35 36 41 36 34 35 31 29 29 29 28 28 27 26 25 28 32 28 28 26 25 26 25 24 24 26 26 25 25 25 25 23 21 27 29 29 30 28 28 27 28 27 28 28 29 28 28 28 28 28 29 28 31 31 31 29
56 56 57 57 57 57 56 56 53 52 52 51 47 47 49 49 46 46 33 22 20 26 37 34 38 37 37 42 42 37 38 36 35 37 41 36 32 31 31 31 30 28 29 29 27 27 26 27 30 27 28 28 27 25 26 27 24 25 27 25 25 25 23 25 27 26 26 27 28 27 23 26 28 28 28 28 29 28 29 29 28 28 28 29 28 28 29 33
56 56 57 57 57 57 57 51 50 53 52 50 48 47 50 49 48 44 26 18 12 20 26 26 38 30 40 37 40 38 33 31 36 38 41 37 41 32 31 29 29 28 29 29 27 28 26 30 29 29 28 27 27 26 27 27 25 24 24 27 26 26 26 26 26 27 24 23 27 29 25 22 26 25 27 28 29 28 28 30 29 29 29 29 29 29 29 29
57 56 57 57 57 57 51 46 51 52 48 48 50 48 49 48 48 46 12 17 9 25 23 29 26 26 39 35 38 25 16 21 38 40 38 40 34 39 29 29 29 31 30 30 26 24 29 30 30 29 28 28 26 25 28 27 26 24 28 28 28 27 26 27 27 27 27 28 29 29 28 26 25 26 28 27 27 27 28 28 29 30 30 30 30 30 30 30
57 57 57 57 57 55 50 52 52 49 47 48 50 49 49 49 45 30 20 5 4 28 27 30 31 34 38 38 33 20 21 32 29 37 39 39 37 34 29 29 27 28 31 27 22 25 30 29 29 28 27 27 27 28 29 29 26 26 30 29 28 27 27 27 27 26 27 27 26 27 29 25 25 28 29 29 28 28 28 28 29 29 31 31 32 32 32 31
57 57 56 56 57 55 53 51 50 49 50 49 50 50 50 48 35 17 15 5 14 27 34 29 39 37 36 35 30 33 31 34 24 32 39 37 38 34 29 29 29 29 31 27 20 27 29 31 31 31 29 27 29 31 30 30 26 28 30 30 29 29 28 28 27 27 27 26 25 27 28 21 20 26 28 30 28 28 28 28 28 29 30 32 33 33 33 32
57 57 57 57 57 55 53 53 50 50 50 50 50 50 49 41 21 15 6 4 28 18 33 32 34 32 34 32 28 33 29 31 35 36 37 35 36 35 34 33 31 30 29 30 29 28 32 35 34 31 30 30 32 31 31 30 30 32 31 31 30 28 27 26 27 26 24 22 26 27 28 24 21 26 28 28 29 28 28 28 29 30 32 32 33 33 34 32
57 57 57 56 53 53 53 49 51 50 51 51 51 49 43 36 21 14 7 14 23 31 33 30 31 35 32 31 29 31 32 33 35 36 35 36 34 35 33 30 33 30 28 28 28 29 31 32 31 32 34 33 33 32 31 31 31 32 30 30 30 28 22 23 19 23 21 23 26 27 28 27 23 26 27 28 29 29 29 28 28 29 30 31 33 33 33 32
57 57 57 56 55 54 50 49 52 51 51 52 50 46 33 21 33 13 11 11 14 23 30 30 33 33 32 31 30 32 30 33 35 35 34 34 33 32 31 27 30 24 25 26 26 28 29 31 31 33 35 33 31 33 32 32 32 32 31 29 25 20 18 16 17 20 20 20 22 26 27 27 27 25 26 28 29 30 30 30 30 30 31 32 32 33 33 33
56 56 57 56 54 53 52 52 52 52 52 51 48 43 28 20 17 19 17 17 14 29 29 32 32 33 33 30 30 31 31 29 33 34 33 32 33 33 32 30 31 24 16 23 26 24 26 29 30 31 32 34 33 28 30 28 31 31 30 28 23 17 18 16 13 10 14 19 23 28 26 26 27 28 29 28 29 30 30 31 32 32 32 32 33 33 32 33
56 56 56 56 55 54 53 53 53 53 51 50 46 39 32 20 19 29 19 19 27 32 32 31 32 31 32 28 30 32 29 31 34 34 34 33 33 32 32 33 31 29 28 26 25 25 17 18 24 32 30 34 33 29 30 29 31 31 30 29 27 22 18 16 15 13 15 17 21 22 20 23 21 24 29 30 30 30 30 31 32 32 32 33 32 31 31 32
56 56 56 56 55 55 53 54 53 53 51 49 42 33 23 22 26 22 22 21 31 33 32 32 32 31 30 30 31 32 32 28 33 33 32 32 31 31 31 31 33 30 30 21 25 24 23 21 24 31 31 34 33 33 34 32 30 30 30 30 25 25 23 13 15 13 14 17 18 17 24 25 25 27 29 30 30 30 30 30 31 30 30 31 30 30 30 31
54 54 56 54 53 54 54 54 53 53 51 46 38 31 25 26 26 29 27 24 33 33 32 32 29 29 29 30 31 32 33 31 32 32 30 31 30 31 31 30 32 32 26 20 26 22 23 22 29 31 31 33 32 32 32 30 24 28 31 28 30 30 25 19 18 19 17 15 22 16 25 27 27 26 27 28 28 28 29 29 30 30 30 31 31 31 31 31
51 54 51 53 53 54 54 54 54 52 49 44 36 30 34 34 35 34 36 25 32 35 32 29 31 29 29 30 30 32 32 34 32 31 29 30 30 31 29 31 32 33 30 24 28 29 22 23 30 30 31 32 32 32 31 32 30 31 26 30 30 30 29 25 20 16 18 21 21 20 22 23 23 22 25 27 28 28 28 29 29 30 30 30 31 32 32 32
51 51 52 52 53 54 54 54 53 51 47 42 34 34 37 35 39 36 35 34 35 34 31 27 27 31 29 29 29 31 32 29 31 30 29 30 28 32 31 29 32 33 32 29 22 28 27 21 27 30 30 30 31 32 31 31 31 30 29 31 29 24 23 26 21 19 14 17 21 20 22 22 25 24 22 23 27 27 27 29 28 28 28 29 30 30 31 32
51 50 45 49 54 54 54 54 52 48 44 36 34 34 38 37 38 38 36 35 34 32 28 29 27 30 31 29 29 31 32 28 32 31 28 29 26 30 31 31 30 33 33 32 26 29 28 21 22 32 30 30 31 31 30 30 31 31 31 30 30 28 19 23 26 19 23 14 13 20 17 20 26 24 25 24 26 27 26 27 27 27 28 29 29 30 30 31
48 44 42 51 54 54 54 53 49 46 41 33 34 35 39 36 37 39 39 37 35 31 27 28 29 30 31 30 32 32 33 30 32 31 28 29 28 31 31 31 30 32 34 33 29 34 28 24 20 27 30 31 30 31 30 31 30 29 29 29 29 26 28 28 22 24 21 11 11 14 20 21 23 26 25 24 25 25 26 26 28 29 30 30 30 30 31 31
49 44 44 52 53 53 53 50 44 40 37 37 38 36 38 36 37 38 39 39 37 37 31 29 30 28 32 31 30 31 31 31 31 31 29 28 29 25 32 32 33 32 33 33 31 31 25 24 22 28 29 29 30 29 31 32 32 31 30 29 30 28 25 21 23 24 15 20 21 17 20 23 26 28 25 26 26 27 28 27 28 29 30 31 31 31 30 31
45 38 42 53 53 53 48 41 41 43 39 35 34 37 36 39 37 37 38 39 38 38 39 34 33 29 32 32 32 32 32 31 32 31 30 28 30 29 29 33 33 35 33 31 31 33 30 30 29 27 29 30 30 30 30 30 31 31 30 30 31 29 27 22 19 23 20 24 21 20 17 22 27 29 28 28 28 27 29 30 29 29 30 31 31 31 31 31
43 41 47 53 53 51 46 39 41 40 38 38 39 38 39 38 37 38 37 38 36 38 36 36 35 32 31 32 32 33 34 32 32 31 31 31 30 32 30 34 34 34 33 31 32 33 35 30 26 29 30 30 31 30 30 30 31 30 30 28 30 30 30 28 26 26 27 21 21 19 18 24 27 29 29 29 29 29 29 30 30 30 30 30 29 30 30 30
44 43 45 51 53 51 44 34 34 37 38 39 39 37 38 38 37 37 37 38 36 37 35 34 34 34 33 33 34 33 35 30 34 33 31 31 31 31 34 35 35 34 32 32 30 34 29 31 29 26 26 28 30 30 30 30 30 28 28 31 32 31 30 27 27 25 23 26 27 25 23 24 26 28 26 27 27 28 28 28 29 30 30 30 29 29 30 30
43 43 43 46 50 49 41 41 38 37 38 37 37 36 37 38 40 38 37 37 38 37 36 35 35 36 36 35 34 35 36 32 30 35 34 32 33 32 32 36 35 33 33 34 36 35 30 31 29 25 24 21 20 22 25 28 30 29 27 29 31 31 31 28 28 25 25 28 27 25 24 25 28 29 27 26 27 27 28 28 28 29 29 29 29 30 30 30
38 33 40 41 44 44 45 44 40 38 37 37 36 37 37 36 38 40 39 37 38 37 36 36 37 37 35 34 33 34 35 36 32 30 34 32 30 31 31 34 35 35 36 37 37 34 31 32 30 27 26 24 25 25 29 31 29 29 30 31 31 32 32 31 30 29 27 28 27 28 27 26 26 27 27 28 26 27 27 27 27 28 28 29 29 30 30 30
41 36 36 33 41 42 39 42 41 40 36 38 35 37 36 36 37 37 41 38 39 37 37 36 36 35 35 35 34 33 34 34 35 32 31 31 31 31 31 32 35 36 37 36 37 34 32 31 32 30 29 27 27 27 30 31 30 30 30 31 32 32 32 31 30 28 30 29 26 29 29 29 27 27 28 28 28 28 28 27 27 28 28 29 29 30 32 30
33 35 39 40 37 34 37 37 40 40 39 38 36 37 36 36 36 35 40 39 41 38 36 37 37 36 35 35 35 33 33 32 32 32 32 30 32 32 32 33 34 36 37 35 37 33 32 29 32 32 31 30 29 27 30 31 30 30 31 31 31 32 32 31 31 31 31 29 27 29 30 29 29 29 29 29 28 28 28 28 28 28 28 29 29 29 30 30
38 38 38 40 35 35 38 38 38 39 38 39 36 36 35 36 35 36 38 38 39 39 38 34 35 36 36 36 35 33 33 30 31 33 32 31 32 30 29 30 32 34 35 34 35 34 33 31 32 32 31 31 31 30 30 31 30 30 30 31 31 32 32 32 31 32 31 30 31 30 30 30 30 29 29 30 30 29 28 29 28 27 27 28 29 29 29 29
34 35 33 39 38 36 36 36 36 36 34 36 32 33 35 35 35 36 37 38 35 38 39 36 36 37 36 36 35 33 33 33 32 32 33 33 30 32 31 32 29 31 34 35 35 35 33 31 34 32 31 31 31 31 31 31 30 29 29 30 31 32 32 32 32 32 32 32 31 31 30 30 30 31 30 32 30 30 29 29 28 28 28 28 29 29 29 29
38 38 39 35 33 35 36 36 35 35 32 33 34 34 35 35 36 37 37 39 37 36 38 37 37 37 37 36 36 35 35 35 35 34 34 34 32 34 32 32 34 31 33 33 35 34 34 32 33 33 31 31 32 32 32 32 30 30 30 30 30 31 30 31 31 32 31 31 31 31 31 30 31 32 32 32 31 30 29 30 30 30 30 29 29 29 29 29
39 39 39 37 32 36 35 35 35 35 32 35 34 34 34 34 36 37 35 39 41 39 39 39 38 37 37 37 36 36 37 37 37 36 36 39 39 39 37 36 35 34 33 34 35 34 34 33 32 32 31 31 33 33 32 32 29 29 30 31 31 31 31 32 32 33 32 32 30 30 30 31 31 32 32 32 31 30 30 30 31 31 31 31 30 30 30 31